Location: Banksville Park
(38.5557°N, 75.1182°W)
Time: 22:51:07
(UTC+00:00)

Ariane Rocket - Pass Details

Date: 19 September 2020
Orbit: 761 x 769 km, 98.7° (Epoch: 21 October)

Event Time Altitude Azimuth Distance (km) Brightness Sun altitude
Exits shadow 00:50:36 30° 165° (SSE) 1,354 4.0 -21.4°
Maximum altitude 00:53:13 89° 79° (E) 769 2.9 -21.9°
Drops below altitude 10° 00:58:19 10° 347° (NNW) 2,309 5.9 -22.8°
Sets 01:00:37 0° 347° (NNW) 3,240 6.7 -23.2°
